Year,Month,Day,Hour,Minute,Value (Times are PST for temperature in C)
2018,05,15,00,00,15.50
2018,05,15,00,01,15.50
2018,05,15,00,02,15.40
2018,05,15,00,03,15.40
2018,05,15,00,04,15.40
2018,05,15,00,05,15.40
2018,05,15,00,06,15.30
2018,05,15,00,07,15.30
2018,05,15,00,08,15.30
2018,05,15,00,09,15.30
2018,05,15,00,10,15.30
2018,05,15,00,11,15.30
2018,05,15,00,12,15.30
2018,05,15,00,13,15.30
2018,05,15,00,14,15.20
2018,05,15,00,15,15.20
2018,05,15,00,16,15.20
2018,05,15,00,17,15.20
2018,05,15,00,18,15.10
2018,05,15,00,19,15.10
2018,05,15,00,20,15.10
2018,05,15,00,21,15.10
2018,05,15,00,22,15.00
2018,05,15,00,23,15.00
2018,05,15,00,24,15.00
2018,05,15,00,25,15.00
2018,05,15,00,26,14.90
2018,05,15,00,27,14.90
2018,05,15,00,28,14.90
2018,05,15,00,29,14.90
2018,05,15,00,30,14.90
2018,05,15,00,31,14.80
2018,05,15,00,32,14.80
2018,05,15,00,33,14.80
2018,05,15,00,34,14.80
2018,05,15,00,35,14.80
2018,05,15,00,36,14.80
2018,05,15,00,37,14.70
2018,05,15,00,38,14.70
2018,05,15,00,39,14.70
2018,05,15,00,40,14.70
2018,05,15,00,41,14.70
2018,05,15,00,42,14.60
2018,05,15,00,43,14.60
2018,05,15,00,44,14.60
2018,05,15,00,45,14.60
2018,05,15,00,46,14.50
2018,05,15,00,47,14.50
2018,05,15,00,48,14.50
2018,05,15,00,49,14.50
2018,05,15,00,50,14.50
2018,05,15,00,51,14.40
2018,05,15,00,52,14.50
2018,05,15,00,53,14.40
2018,05,15,00,54,14.40
2018,05,15,00,55,14.40
2018,05,15,00,56,14.40
2018,05,15,00,57,14.40
2018,05,15,00,58,14.40
2018,05,15,00,59,14.40
2018,05,15,01,00,14.30
2018,05,15,01,01,14.30
2018,05,15,01,02,14.30
2018,05,15,01,03,14.30
2018,05,15,01,04,14.20
2018,05,15,01,05,14.20
2018,05,15,01,06,14.20
2018,05,15,01,07,14.20
2018,05,15,01,08,14.20
2018,05,15,01,09,14.10
2018,05,15,01,10,14.10
2018,05,15,01,11,14.10
2018,05,15,01,12,14.10
2018,05,15,01,13,14.00
2018,05,15,01,14,14.00
2018,05,15,01,15,14.00
2018,05,15,01,16,14.00
2018,05,15,01,17,14.00
2018,05,15,01,18,13.90
2018,05,15,01,19,13.90
2018,05,15,01,20,13.90
2018,05,15,01,21,13.90
2018,05,15,01,22,13.80
2018,05,15,01,23,13.80
2018,05,15,01,24,13.80
2018,05,15,01,25,13.80
2018,05,15,01,26,13.80
2018,05,15,01,27,13.80
2018,05,15,01,28,13.70
2018,05,15,01,29,13.70
2018,05,15,01,30,13.70
2018,05,15,01,31,13.70
2018,05,15,01,32,13.70
2018,05,15,01,33,13.60
2018,05,15,01,34,13.60
2018,05,15,01,35,13.60
2018,05,15,01,36,13.60
2018,05,15,01,37,13.60
2018,05,15,01,38,13.60
2018,05,15,01,39,13.60
2018,05,15,01,40,13.60
2018,05,15,01,41,13.60
2018,05,15,01,42,13.50
2018,05,15,01,43,13.50
2018,05,15,01,44,13.50
2018,05,15,01,45,13.40
2018,05,15,01,46,13.40
2018,05,15,01,47,13.40
2018,05,15,01,48,13.40
2018,05,15,01,49,13.40
2018,05,15,01,50,13.40
2018,05,15,01,51,13.40
2018,05,15,01,52,13.40
2018,05,15,01,53,13.40
2018,05,15,01,54,13.30
2018,05,15,01,55,13.30
2018,05,15,01,56,13.30
2018,05,15,01,57,13.30
2018,05,15,01,58,13.30
2018,05,15,01,59,13.30
2018,05,15,02,00,13.30
2018,05,15,02,01,13.30
2018,05,15,02,02,13.20
2018,05,15,02,03,13.20
2018,05,15,02,04,13.20
2018,05,15,02,05,13.20
2018,05,15,02,06,13.20
2018,05,15,02,07,13.20
2018,05,15,02,08,13.20
2018,05,15,02,09,13.10
2018,05,15,02,10,13.10
2018,05,15,02,11,13.10
2018,05,15,02,12,13.10
2018,05,15,02,13,13.10
2018,05,15,02,14,13.10
2018,05,15,02,15,13.10
2018,05,15,02,16,13.10
2018,05,15,02,17,13.10
2018,05,15,02,18,13.10
2018,05,15,02,19,13.00
2018,05,15,02,20,13.00
2018,05,15,02,21,13.00
2018,05,15,02,22,13.00
2018,05,15,02,23,12.90
2018,05,15,02,24,12.90
2018,05,15,02,25,12.90
2018,05,15,02,26,12.90
2018,05,15,02,27,12.90
2018,05,15,02,28,12.90
2018,05,15,02,29,12.90
2018,05,15,02,30,12.90
2018,05,15,02,31,12.90
2018,05,15,02,32,12.90
2018,05,15,02,33,12.90
2018,05,15,02,34,12.90
2018,05,15,02,35,12.90
2018,05,15,02,36,12.90
2018,05,15,02,37,12.90
2018,05,15,02,38,12.90
2018,05,15,02,39,12.90
2018,05,15,02,40,12.80
2018,05,15,02,41,12.80
2018,05,15,02,42,12.80
2018,05,15,02,43,12.80
2018,05,15,02,44,12.80
2018,05,15,02,45,12.80
2018,05,15,02,46,12.80
2018,05,15,02,47,12.80
2018,05,15,02,48,12.80
2018,05,15,02,49,12.80
2018,05,15,02,50,12.70
2018,05,15,02,51,12.70
2018,05,15,02,52,12.70
2018,05,15,02,53,12.70
2018,05,15,02,54,12.70
2018,05,15,02,55,12.60
2018,05,15,02,56,12.60
2018,05,15,02,57,12.60
2018,05,15,02,58,12.60
2018,05,15,02,59,12.50
2018,05,15,03,00,12.50
2018,05,15,03,01,12.50
2018,05,15,03,02,12.50
2018,05,15,03,03,12.40
2018,05,15,03,04,12.40
2018,05,15,03,05,12.40
2018,05,15,03,06,12.40
2018,05,15,03,07,12.40
2018,05,15,03,08,12.40
2018,05,15,03,09,12.40
2018,05,15,03,10,12.30
2018,05,15,03,11,12.30
2018,05,15,03,12,12.30
2018,05,15,03,13,12.30
2018,05,15,03,14,12.30
2018,05,15,03,15,12.30
2018,05,15,03,16,12.30
2018,05,15,03,17,12.30
2018,05,15,03,18,12.30
2018,05,15,03,19,12.30
2018,05,15,03,20,12.30
2018,05,15,03,21,12.30
2018,05,15,03,22,12.20
2018,05,15,03,23,12.20
2018,05,15,03,24,12.20
2018,05,15,03,25,12.20
2018,05,15,03,26,12.20
2018,05,15,03,27,12.20
2018,05,15,03,28,12.20
2018,05,15,03,29,12.20
2018,05,15,03,30,12.20
2018,05,15,03,31,12.20
2018,05,15,03,32,12.10
2018,05,15,03,33,12.10
2018,05,15,03,34,12.10
2018,05,15,03,35,12.10
2018,05,15,03,36,12.10
2018,05,15,03,37,12.10
2018,05,15,03,38,12.00
2018,05,15,03,39,12.00
2018,05,15,03,40,12.00
2018,05,15,03,41,12.00
2018,05,15,03,42,12.00
2018,05,15,03,43,12.00
2018,05,15,03,44,11.90
2018,05,15,03,45,11.90
2018,05,15,03,46,11.90
2018,05,15,03,47,11.90
2018,05,15,03,48,11.90
2018,05,15,03,49,11.90
2018,05,15,03,50,11.90
2018,05,15,03,51,11.90
2018,05,15,03,52,11.90
2018,05,15,03,53,11.90
2018,05,15,03,54,11.90
2018,05,15,03,55,11.80
2018,05,15,03,56,11.80
2018,05,15,03,57,11.80
2018,05,15,03,58,11.80
2018,05,15,03,59,11.80
2018,05,15,04,00,11.80
2018,05,15,04,01,11.70
2018,05,15,04,02,11.70
2018,05,15,04,03,11.70
2018,05,15,04,04,11.70
2018,05,15,04,05,11.70
2018,05,15,04,06,11.70
2018,05,15,04,07,11.70
2018,05,15,04,08,11.70
2018,05,15,04,09,11.70
2018,05,15,04,10,11.70
2018,05,15,04,11,11.70
2018,05,15,04,12,11.70
2018,05,15,04,13,11.60
2018,05,15,04,14,11.60
2018,05,15,04,15,11.60
2018,05,15,04,16,11.60
2018,05,15,04,17,11.60
2018,05,15,04,18,11.60
2018,05,15,04,19,11.50
2018,05,15,04,20,11.50
2018,05,15,04,21,11.50
2018,05,15,04,22,11.50
2018,05,15,04,23,11.50
2018,05,15,04,24,11.50
2018,05,15,04,25,11.50
2018,05,15,04,26,11.50
2018,05,15,04,27,11.40
2018,05,15,04,28,11.40
2018,05,15,04,29,11.40
2018,05,15,04,30,11.40
2018,05,15,04,31,11.40
2018,05,15,04,32,11.40
2018,05,15,04,33,11.40
2018,05,15,04,34,11.50
2018,05,15,04,35,11.50
2018,05,15,04,36,11.50
2018,05,15,04,37,11.60
2018,05,15,04,38,11.60
2018,05,15,04,39,11.60
2018,05,15,04,40,11.60
2018,05,15,04,41,11.60
2018,05,15,04,42,11.60
2018,05,15,04,43,11.60
2018,05,15,04,44,11.60
2018,05,15,04,45,11.60
2018,05,15,04,46,11.60
2018,05,15,04,47,11.60
2018,05,15,04,48,11.60
2018,05,15,04,49,11.60
2018,05,15,04,50,11.60
2018,05,15,04,51,11.60
2018,05,15,04,52,11.60
2018,05,15,04,53,11.60
2018,05,15,04,54,11.50
2018,05,15,04,55,11.50
2018,05,15,04,56,11.50
2018,05,15,04,57,11.40
2018,05,15,04,58,11.40
2018,05,15,04,59,11.40
2018,05,15,05,00,11.40
2018,05,15,05,01,11.30
2018,05,15,05,02,11.30
2018,05,15,05,03,11.30
2018,05,15,05,04,11.30
2018,05,15,05,05,11.20
2018,05,15,05,06,11.20
2018,05,15,05,07,11.20
2018,05,15,05,08,11.20
2018,05,15,05,09,11.20
2018,05,15,05,10,11.20
2018,05,15,05,11,11.10
2018,05,15,05,12,11.10
2018,05,15,05,13,11.10
2018,05,15,05,14,11.10
2018,05,15,05,15,11.10
2018,05,15,05,16,11.10
2018,05,15,05,17,11.10
2018,05,15,05,18,11.10
2018,05,15,05,19,11.10
2018,05,15,05,20,11.10
2018,05,15,05,21,11.10
2018,05,15,05,22,11.10
2018,05,15,05,23,11.10
2018,05,15,05,24,11.10
2018,05,15,05,25,11.10
2018,05,15,05,26,11.10
2018,05,15,05,27,11.10
2018,05,15,05,28,11.10
2018,05,15,05,29,11.10
2018,05,15,05,30,11.10
2018,05,15,05,31,11.00
2018,05,15,05,32,11.00
2018,05,15,05,33,11.00
2018,05,15,05,34,11.00
2018,05,15,05,35,11.00
2018,05,15,05,36,10.90
2018,05,15,05,37,10.90
2018,05,15,05,38,11.00
2018,05,15,05,39,11.00
2018,05,15,05,40,11.00
2018,05,15,05,41,10.90
2018,05,15,05,42,10.90
2018,05,15,05,43,10.90
2018,05,15,05,44,10.90
2018,05,15,05,45,10.90
2018,05,15,05,46,10.90
2018,05,15,05,47,10.90
2018,05,15,05,48,10.90
2018,05,15,05,49,10.90
2018,05,15,05,50,10.90
2018,05,15,05,51,10.90
2018,05,15,05,52,11.00
2018,05,15,05,53,11.00
2018,05,15,05,54,11.00
2018,05,15,05,55,10.90
2018,05,15,05,56,10.90
2018,05,15,05,57,10.90
2018,05,15,05,58,10.90
2018,05,15,05,59,10.90
2018,05,15,06,00,10.80
2018,05,15,06,01,10.80
2018,05,15,06,02,10.80
2018,05,15,06,03,10.80
2018,05,15,06,04,10.80
2018,05,15,06,05,10.80
2018,05,15,06,06,10.80
2018,05,15,06,07,10.80
2018,05,15,06,08,10.80
2018,05,15,06,09,10.70
2018,05,15,06,10,10.70
2018,05,15,06,11,10.70
2018,05,15,06,12,10.70
2018,05,15,06,13,10.70
2018,05,15,06,14,10.70
2018,05,15,06,15,10.70
2018,05,15,06,16,10.70
2018,05,15,06,17,10.80
2018,05,15,06,18,10.80
2018,05,15,06,19,10.80
2018,05,15,06,20,10.80
2018,05,15,06,21,10.80
2018,05,15,06,22,10.90
2018,05,15,06,23,10.90
2018,05,15,06,24,10.90
2018,05,15,06,25,10.90
2018,05,15,06,26,11.00
2018,05,15,06,27,11.00
2018,05,15,06,28,11.00
2018,05,15,06,29,11.10
2018,05,15,06,30,11.10
2018,05,15,06,31,11.10
2018,05,15,06,32,11.10
2018,05,15,06,33,11.20
2018,05,15,06,34,11.20
2018,05,15,06,35,11.20
2018,05,15,06,36,11.20
2018,05,15,06,37,11.30
2018,05,15,06,38,11.30
2018,05,15,06,39,11.30
2018,05,15,06,40,11.30
2018,05,15,06,41,11.30
2018,05,15,06,42,11.30
2018,05,15,06,43,11.30
2018,05,15,06,44,11.40
2018,05,15,06,45,11.40
2018,05,15,06,46,11.40
2018,05,15,06,47,11.40
2018,05,15,06,48,11.50
2018,05,15,06,49,11.60
2018,05,15,06,50,11.60
2018,05,15,06,51,11.70
2018,05,15,06,52,11.70
2018,05,15,06,53,11.80
2018,05,15,06,54,11.80
2018,05,15,06,55,11.80
2018,05,15,06,56,11.90
2018,05,15,06,57,11.90
2018,05,15,06,58,12.00
2018,05,15,06,59,12.00
2018,05,15,07,00,12.10
2018,05,15,07,01,12.10
2018,05,15,07,02,12.10
2018,05,15,07,03,12.20
2018,05,15,07,04,12.20
2018,05,15,07,05,12.20
2018,05,15,07,06,12.20
2018,05,15,07,07,12.30
2018,05,15,07,08,12.30
2018,05,15,07,09,12.30
2018,05,15,07,10,12.40
2018,05,15,07,11,12.50
2018,05,15,07,12,12.50
2018,05,15,07,13,12.60
2018,05,15,07,14,12.70
2018,05,15,07,15,12.80
2018,05,15,07,16,12.80
2018,05,15,07,17,12.90
2018,05,15,07,18,12.90
2018,05,15,07,19,13.00
2018,05,15,07,20,13.10
2018,05,15,07,21,13.10
2018,05,15,07,22,13.20
2018,05,15,07,23,13.20
2018,05,15,07,24,13.30
2018,05,15,07,25,13.30
2018,05,15,07,26,13.30
2018,05,15,07,27,13.40
2018,05,15,07,28,13.40
2018,05,15,07,29,13.40
2018,05,15,07,30,13.40
2018,05,15,07,31,13.40
2018,05,15,07,32,13.40
2018,05,15,07,33,13.40
2018,05,15,07,34,13.40
2018,05,15,07,35,13.40
2018,05,15,07,36,13.50
2018,05,15,07,37,13.50
2018,05,15,07,38,13.50
2018,05,15,07,39,13.50
2018,05,15,07,40,13.50
2018,05,15,07,41,13.50
2018,05,15,07,42,13.60
2018,05,15,07,43,13.60
2018,05,15,07,44,13.70
2018,05,15,07,45,13.70
2018,05,15,07,46,13.80
2018,05,15,07,47,13.80
2018,05,15,07,48,13.90
2018,05,15,07,49,13.90
2018,05,15,07,50,13.90
2018,05,15,07,51,14.00
2018,05,15,07,52,14.10
2018,05,15,07,53,14.10
2018,05,15,07,54,14.10
2018,05,15,07,55,14.10
2018,05,15,07,56,14.20
2018,05,15,07,57,14.20
2018,05,15,07,58,14.20
2018,05,15,07,59,14.30
2018,05,15,08,00,14.30
2018,05,15,08,01,14.30
2018,05,15,08,02,14.40
2018,05,15,08,03,14.50
2018,05,15,08,04,14.60
2018,05,15,08,05,14.70
2018,05,15,08,06,14.80
2018,05,15,08,07,14.80
2018,05,15,08,08,14.90
2018,05,15,08,09,15.00
2018,05,15,08,10,15.00
2018,05,15,08,11,15.00
2018,05,15,08,12,15.10
2018,05,15,08,13,15.20
2018,05,15,08,14,15.20
2018,05,15,08,15,15.30
2018,05,15,08,16,15.30
2018,05,15,08,17,15.30
2018,05,15,08,18,15.30
2018,05,15,08,19,15.30
2018,05,15,08,20,15.30
2018,05,15,08,21,15.30
2018,05,15,08,22,15.30
2018,05,15,08,23,15.30
2018,05,15,08,24,15.30
2018,05,15,08,25,15.40
2018,05,15,08,26,15.50
2018,05,15,08,27,15.50
2018,05,15,08,28,15.60
2018,05,15,08,29,15.60
2018,05,15,08,30,15.60
2018,05,15,08,31,15.60
2018,05,15,08,32,15.60
2018,05,15,08,33,15.60
2018,05,15,08,34,15.60
2018,05,15,08,35,15.60
2018,05,15,08,36,15.50
2018,05,15,08,37,15.50
2018,05,15,08,38,15.50
2018,05,15,08,39,15.50
2018,05,15,08,40,15.50
2018,05,15,08,41,15.50
2018,05,15,08,42,15.50
2018,05,15,08,43,15.50
2018,05,15,08,44,15.60
2018,05,15,08,45,15.60
2018,05,15,08,46,15.60
2018,05,15,08,47,15.60
2018,05,15,08,48,15.50
2018,05,15,08,49,15.40
2018,05,15,08,50,15.40
2018,05,15,08,51,15.30
2018,05,15,08,52,15.30
2018,05,15,08,53,15.30
2018,05,15,08,54,15.40
2018,05,15,08,55,15.40
2018,05,15,08,56,15.40
2018,05,15,08,57,15.40
2018,05,15,08,58,15.40
2018,05,15,08,59,15.40
2018,05,15,09,00,15.40
2018,05,15,09,01,15.40
2018,05,15,09,02,15.40
2018,05,15,09,03,15.50
2018,05,15,09,04,15.50
2018,05,15,09,05,15.60
2018,05,15,09,06,15.70
2018,05,15,09,07,15.70
2018,05,15,09,08,15.80
2018,05,15,09,09,15.90
2018,05,15,09,10,16.00
2018,05,15,09,11,16.10
2018,05,15,09,12,16.20
2018,05,15,09,13,16.30
2018,05,15,09,14,16.40
2018,05,15,09,15,16.40
2018,05,15,09,16,16.40
2018,05,15,09,17,16.40
2018,05,15,09,18,16.40
2018,05,15,09,19,16.40
2018,05,15,09,20,16.40
2018,05,15,09,21,16.40
2018,05,15,09,22,16.40
2018,05,15,09,23,16.50
2018,05,15,09,24,16.50
2018,05,15,09,25,16.60
2018,05,15,09,26,16.70
2018,05,15,09,27,16.70
2018,05,15,09,28,16.80
2018,05,15,09,29,16.90
2018,05,15,09,30,16.90
2018,05,15,09,31,16.90
2018,05,15,09,32,16.90
2018,05,15,09,33,16.90
2018,05,15,09,34,16.80
2018,05,15,09,35,16.80
2018,05,15,09,36,16.80
2018,05,15,09,37,16.70
2018,05,15,09,38,16.70
2018,05,15,09,39,16.70
2018,05,15,09,40,16.70
2018,05,15,09,41,16.70
2018,05,15,09,42,16.60
2018,05,15,09,43,16.60
2018,05,15,09,44,16.60
2018,05,15,09,45,16.60
2018,05,15,09,46,16.60
2018,05,15,09,47,16.60
2018,05,15,09,48,16.60
2018,05,15,09,49,16.60
2018,05,15,09,50,16.60
2018,05,15,09,51,16.60
2018,05,15,09,52,16.60
2018,05,15,09,53,16.60
2018,05,15,09,54,16.60
2018,05,15,09,55,16.60
2018,05,15,09,56,16.60
2018,05,15,09,57,16.60
2018,05,15,09,58,16.70
2018,05,15,09,59,16.70
2018,05,15,10,00,16.80
2018,05,15,10,01,16.80
2018,05,15,10,02,16.90
2018,05,15,10,03,16.90
2018,05,15,10,04,17.00
2018,05,15,10,05,17.10
2018,05,15,10,06,17.20
2018,05,15,10,07,17.30
2018,05,15,10,08,17.30
2018,05,15,10,09,17.30
2018,05,15,10,10,17.30
2018,05,15,10,11,17.40
2018,05,15,10,12,17.40
2018,05,15,10,13,17.40
2018,05,15,10,14,17.50
2018,05,15,10,15,17.50
2018,05,15,10,16,17.50
2018,05,15,10,17,17.60
2018,05,15,10,18,17.60
2018,05,15,10,19,17.50
2018,05,15,10,20,17.50
2018,05,15,10,21,17.50
2018,05,15,10,22,17.60
2018,05,15,10,23,17.60
2018,05,15,10,24,17.60
2018,05,15,10,25,17.60
2018,05,15,10,26,17.60
2018,05,15,10,27,17.70
2018,05,15,10,28,17.80
2018,05,15,10,29,17.80
2018,05,15,10,30,17.80
2018,05,15,10,31,17.80
2018,05,15,10,32,17.70
2018,05,15,10,33,17.70
2018,05,15,10,34,17.70
2018,05,15,10,35,17.70
2018,05,15,10,36,17.80
2018,05,15,10,37,17.70
2018,05,15,10,38,17.70
2018,05,15,10,39,17.70
2018,05,15,10,40,17.70
2018,05,15,10,41,17.70
2018,05,15,10,42,17.80
2018,05,15,10,43,17.80
2018,05,15,10,44,17.90
2018,05,15,10,45,17.90
2018,05,15,10,46,18.00
2018,05,15,10,47,18.10
2018,05,15,10,48,18.10
2018,05,15,10,49,18.20
2018,05,15,10,50,18.30
2018,05,15,10,51,18.40
2018,05,15,10,52,18.40
2018,05,15,10,53,18.50
2018,05,15,10,54,18.60
2018,05,15,10,55,18.60
2018,05,15,10,56,18.70
2018,05,15,10,57,18.70
2018,05,15,10,58,18.80
2018,05,15,10,59,18.80
2018,05,15,11,00,18.80
2018,05,15,11,01,18.80
2018,05,15,11,02,18.80
2018,05,15,11,03,18.80
2018,05,15,11,04,18.90
2018,05,15,11,05,18.90
2018,05,15,11,06,18.90
2018,05,15,11,07,19.00
2018,05,15,11,08,19.10
2018,05,15,11,09,19.20
2018,05,15,11,10,19.20
2018,05,15,11,11,19.30
2018,05,15,11,12,19.30
2018,05,15,11,13,19.40
2018,05,15,11,14,19.40
2018,05,15,11,15,19.50
2018,05,15,11,16,19.60
2018,05,15,11,17,19.60
2018,05,15,11,18,19.70
2018,05,15,11,19,19.70
2018,05,15,11,20,19.60
2018,05,15,11,21,19.60
2018,05,15,11,22,19.60
2018,05,15,11,23,19.60
2018,05,15,11,24,19.70
2018,05,15,11,25,19.70
2018,05,15,11,26,19.80
2018,05,15,11,27,19.80
2018,05,15,11,28,19.90
2018,05,15,11,29,20.00
2018,05,15,11,30,20.10
2018,05,15,11,31,20.10
2018,05,15,11,32,20.10
2018,05,15,11,33,20.00
2018,05,15,11,34,20.00
2018,05,15,11,35,20.00
2018,05,15,11,36,20.00
2018,05,15,11,37,20.00
2018,05,15,11,38,20.10
2018,05,15,11,39,20.10
2018,05,15,11,40,20.10
2018,05,15,11,41,20.20
2018,05,15,11,42,20.30
2018,05,15,11,43,20.30
2018,05,15,11,44,20.30
2018,05,15,11,45,20.30
2018,05,15,11,46,20.30
2018,05,15,11,47,20.30
2018,05,15,11,48,20.20
2018,05,15,11,49,20.20
2018,05,15,11,50,20.20
2018,05,15,11,51,20.20
2018,05,15,11,52,20.30
2018,05,15,11,53,20.40
2018,05,15,11,54,20.40
2018,05,15,11,55,20.30
2018,05,15,11,56,20.30
2018,05,15,11,57,20.30
2018,05,15,11,58,20.30
2018,05,15,11,59,20.30
2018,05,15,12,00,20.40
2018,05,15,12,01,20.50
2018,05,15,12,02,20.60
2018,05,15,12,03,20.70
2018,05,15,12,04,20.70
2018,05,15,12,05,20.70
2018,05,15,12,06,20.70
2018,05,15,12,07,20.70
2018,05,15,12,08,20.70
2018,05,15,12,09,20.80
2018,05,15,12,10,20.80
2018,05,15,12,11,20.80
2018,05,15,12,12,20.90
2018,05,15,12,13,21.00
2018,05,15,12,14,21.00
2018,05,15,12,15,21.10
2018,05,15,12,16,21.20
2018,05,15,12,17,21.30
2018,05,15,12,18,21.40
2018,05,15,12,19,21.50
2018,05,15,12,20,21.60
2018,05,15,12,21,21.70
2018,05,15,12,22,21.80
2018,05,15,12,23,21.80
2018,05,15,12,24,21.80
2018,05,15,12,25,21.90
2018,05,15,12,26,22.00
2018,05,15,12,27,22.00
2018,05,15,12,28,22.00
2018,05,15,12,29,22.00
2018,05,15,12,30,22.00
2018,05,15,12,31,22.00
2018,05,15,12,32,22.00
2018,05,15,12,33,22.10
2018,05,15,12,34,22.20
2018,05,15,12,35,22.30
2018,05,15,12,36,22.30
2018,05,15,12,37,22.30
2018,05,15,12,38,22.20
2018,05,15,12,39,22.10
2018,05,15,12,40,22.00
2018,05,15,12,41,21.90
2018,05,15,12,42,21.90
2018,05,15,12,43,21.90
2018,05,15,12,44,21.90
2018,05,15,12,45,22.00
2018,05,15,12,46,22.10
2018,05,15,12,47,22.10
2018,05,15,12,48,22.10
2018,05,15,12,49,22.20
2018,05,15,12,50,22.30
2018,05,15,12,51,22.50
2018,05,15,12,52,22.50
2018,05,15,12,53,22.50
2018,05,15,12,54,22.50
2018,05,15,12,55,22.40
2018,05,15,12,56,22.40
2018,05,15,12,57,22.30
2018,05,15,12,58,22.20
2018,05,15,12,59,22.20
2018,05,15,13,00,22.20
2018,05,15,13,01,22.20
2018,05,15,13,02,22.30
2018,05,15,13,03,22.20
2018,05,15,13,04,22.20
2018,05,15,13,05,22.20
2018,05,15,13,06,22.20
2018,05,15,13,07,22.30
2018,05,15,13,08,22.30
2018,05,15,13,09,22.40
2018,05,15,13,10,22.40
2018,05,15,13,11,22.30
2018,05,15,13,12,22.30
2018,05,15,13,13,22.30
2018,05,15,13,14,22.10
2018,05,15,13,15,22.00
2018,05,15,13,16,22.00
2018,05,15,13,17,22.00
2018,05,15,13,18,22.00
2018,05,15,13,19,22.00
2018,05,15,13,20,22.10
2018,05,15,13,21,22.10
2018,05,15,13,22,22.20
2018,05,15,13,23,22.20
2018,05,15,13,24,22.30
2018,05,15,13,25,22.30
2018,05,15,13,26,22.40
2018,05,15,13,27,22.50
2018,05,15,13,28,22.60
2018,05,15,13,29,22.60
2018,05,15,13,30,22.60
2018,05,15,13,31,22.60
2018,05,15,13,32,22.70
2018,05,15,13,33,22.80
2018,05,15,13,34,22.90
2018,05,15,13,35,23.00
2018,05,15,13,36,23.00
2018,05,15,13,37,22.80
2018,05,15,13,38,22.60
2018,05,15,13,39,22.50
2018,05,15,13,40,22.40
2018,05,15,13,41,22.30
2018,05,15,13,42,22.30
2018,05,15,13,43,22.30
2018,05,15,13,44,22.30
2018,05,15,13,45,22.30
2018,05,15,13,46,22.30
2018,05,15,13,47,22.30
2018,05,15,13,48,22.20
2018,05,15,13,49,22.20
2018,05,15,13,50,22.30
2018,05,15,13,51,22.30
2018,05,15,13,52,22.40
2018,05,15,13,53,22.30
2018,05,15,13,54,22.30
2018,05,15,13,55,22.10
2018,05,15,13,56,22.10
2018,05,15,13,57,22.00
2018,05,15,13,58,22.00
2018,05,15,13,59,21.90
2018,05,15,14,00,21.90
2018,05,15,14,01,21.90
2018,05,15,14,02,21.90
2018,05,15,14,03,21.90
2018,05,15,14,04,21.90
2018,05,15,14,05,22.00
2018,05,15,14,06,21.90
2018,05,15,14,07,21.90
2018,05,15,14,08,22.00
2018,05,15,14,09,22.00
2018,05,15,14,10,22.10
2018,05,15,14,11,22.10
2018,05,15,14,12,22.10
2018,05,15,14,13,22.10
2018,05,15,14,14,22.10
2018,05,15,14,15,22.00
2018,05,15,14,16,22.00
2018,05,15,14,17,22.00
2018,05,15,14,18,22.00
2018,05,15,14,19,22.10
2018,05,15,14,20,22.10
2018,05,15,14,21,22.00
2018,05,15,14,22,21.90
2018,05,15,14,23,21.90
2018,05,15,14,24,22.00
2018,05,15,14,25,22.00
2018,05,15,14,26,22.10
2018,05,15,14,27,22.20
2018,05,15,14,28,22.20
2018,05,15,14,29,22.10
2018,05,15,14,30,22.10
2018,05,15,14,31,22.00
2018,05,15,14,32,21.90
2018,05,15,14,33,21.80
2018,05,15,14,34,21.80
2018,05,15,14,35,21.80
2018,05,15,14,36,21.80
2018,05,15,14,37,21.80
2018,05,15,14,38,21.90
2018,05,15,14,39,21.90
2018,05,15,14,40,22.00
2018,05,15,14,41,22.00
2018,05,15,14,42,22.00
2018,05,15,14,43,22.10
2018,05,15,14,44,22.10
2018,05,15,14,45,22.00
2018,05,15,14,46,21.90
2018,05,15,14,47,22.00
2018,05,15,14,48,22.10
2018,05,15,14,49,22.10
2018,05,15,14,50,22.10
2018,05,15,14,51,22.10
2018,05,15,14,52,22.10
2018,05,15,14,53,22.20
2018,05,15,14,54,22.20
2018,05,15,14,55,22.30
2018,05,15,14,56,22.30
2018,05,15,14,57,22.40
2018,05,15,14,58,22.40
2018,05,15,14,59,22.50
2018,05,15,15,00,22.50
2018,05,15,15,01,22.50
2018,05,15,15,02,22.40
2018,05,15,15,03,22.40
2018,05,15,15,04,22.40
2018,05,15,15,05,22.40
2018,05,15,15,06,22.50
2018,05,15,15,07,22.50
2018,05,15,15,08,22.50
2018,05,15,15,09,22.50
2018,05,15,15,10,22.60
2018,05,15,15,11,22.60
2018,05,15,15,12,22.60
2018,05,15,15,13,22.60
2018,05,15,15,14,22.50
2018,05,15,15,15,22.50
2018,05,15,15,16,22.40
2018,05,15,15,17,22.40
2018,05,15,15,18,22.50
2018,05,15,15,19,22.60
2018,05,15,15,20,22.60
2018,05,15,15,21,22.70
2018,05,15,15,22,22.80
2018,05,15,15,23,22.70
2018,05,15,15,24,22.60
2018,05,15,15,25,22.50
2018,05,15,15,26,22.40
2018,05,15,15,27,22.40
2018,05,15,15,28,22.40
2018,05,15,15,29,22.40
2018,05,15,15,30,22.40
2018,05,15,15,31,22.40
2018,05,15,15,32,22.40
2018,05,15,15,33,22.40
2018,05,15,15,34,22.40
2018,05,15,15,35,22.40
2018,05,15,15,36,22.40
2018,05,15,15,37,22.40
2018,05,15,15,38,22.30
2018,05,15,15,39,22.30
2018,05,15,15,40,22.20
2018,05,15,15,41,22.20
2018,05,15,15,42,22.10
2018,05,15,15,43,22.10
2018,05,15,15,44,22.10
2018,05,15,15,45,22.10
2018,05,15,15,46,22.10
2018,05,15,15,47,22.10
2018,05,15,15,48,22.10
2018,05,15,15,49,22.10
2018,05,15,15,50,22.20
2018,05,15,15,51,22.20
2018,05,15,15,52,22.20
2018,05,15,15,53,22.20
2018,05,15,15,54,22.30
2018,05,15,15,55,22.30
2018,05,15,15,56,22.20
2018,05,15,15,57,22.20
2018,05,15,15,58,22.20
2018,05,15,15,59,22.10
2018,05,15,16,00,22.20
2018,05,15,16,01,22.20
2018,05,15,16,02,22.30
2018,05,15,16,03,22.30
2018,05,15,16,04,22.30
2018,05,15,16,05,22.30
2018,05,15,16,06,22.30
2018,05,15,16,07,22.30
2018,05,15,16,08,22.20
2018,05,15,16,09,22.20
2018,05,15,16,10,22.30
2018,05,15,16,11,22.30
2018,05,15,16,12,22.40
2018,05,15,16,13,22.50
2018,05,15,16,14,22.60
2018,05,15,16,15,22.60
2018,05,15,16,16,22.70
2018,05,15,16,17,22.70
2018,05,15,16,18,22.70
2018,05,15,16,19,22.70
2018,05,15,16,20,22.70
2018,05,15,16,21,22.70
2018,05,15,16,22,22.80
2018,05,15,16,23,22.80
2018,05,15,16,24,22.80
2018,05,15,16,25,22.80
2018,05,15,16,26,22.90
2018,05,15,16,27,22.90
2018,05,15,16,28,22.90
2018,05,15,16,29,22.80
2018,05,15,16,30,22.80
2018,05,15,16,31,22.80
2018,05,15,16,32,22.80
2018,05,15,16,33,22.90
2018,05,15,16,34,22.90
2018,05,15,16,35,22.90
2018,05,15,16,36,22.90
2018,05,15,16,37,22.90
2018,05,15,16,38,23.00
2018,05,15,16,39,23.00
2018,05,15,16,40,22.90
2018,05,15,16,41,22.90
2018,05,15,16,42,22.80
2018,05,15,16,43,22.90
2018,05,15,16,44,22.90
2018,05,15,16,45,23.00
2018,05,15,16,46,23.10
2018,05,15,16,47,23.10
2018,05,15,16,48,23.20
2018,05,15,16,49,23.10
2018,05,15,16,50,23.10
2018,05,15,16,51,23.00
2018,05,15,16,52,23.00
2018,05,15,16,53,22.90
2018,05,15,16,54,22.90
2018,05,15,16,55,22.90
2018,05,15,16,56,22.80
2018,05,15,16,57,22.80
2018,05,15,16,58,22.80
2018,05,15,16,59,22.80
2018,05,15,17,00,22.70
2018,05,15,17,01,22.70
2018,05,15,17,02,22.60
2018,05,15,17,03,22.60
2018,05,15,17,04,22.70
2018,05,15,17,05,22.70
2018,05,15,17,06,22.80
2018,05,15,17,07,22.70
2018,05,15,17,08,22.70
2018,05,15,17,09,22.70
2018,05,15,17,10,22.70
2018,05,15,17,11,22.80
2018,05,15,17,12,22.80
2018,05,15,17,13,22.70
2018,05,15,17,14,22.70
2018,05,15,17,15,22.60
2018,05,15,17,16,22.60
2018,05,15,17,17,22.60
2018,05,15,17,18,22.70
2018,05,15,17,19,22.70